Home > Weather > Mamoutzou > Past weeks

Flag for Mayotte Weather for the Past 2 Weeks in Mamoutzou, Mayotte

Now
81 °F

Passing clouds.


Feels Like: 85 °F
Forecast: 80 / 84 °F
Wind: 12 mph from Southwest

Location: Dzaoudzi / Pamanzi Mayotte

Current Time: May 5, 2016 at 6:05:31 AM

Latest Report: May 5, 2016 at 5:30 AM


Visibility: N/A

Pressure: 29.86 "Hg

Humidity: 79%

Dew Point: 73 °F

Location of MamoutzouLocation

Historic Weather in Mamoutzou — Graph

°F

Mamoutzou Temperature Yesterday

Maximum temperature yesterday: 88 °F (at 10:00 AM)
Minimum temperature yesterday: 81 °F (at 12:00 AM)
Average temperature yesterday: 84 °F

High & Low Weather Summary for the Past Weeks

 TemperatureHumidityPressure
High90 °F (Apr 20, 11:06 AM)94% (Apr 28, 1:00 AM)29.95 "Hg (Apr 28, 1:00 AM)
Low77 °F (Apr 22, 2:30 AM)52% (Apr 30, 11:00 AM)29.77 "Hg (Apr 25, 2:30 AM)
Average84 °F74%29.87 "Hg
* Reported Apr 20 5:00 AM — May 5 5:00 AM, Mamoutzou, Weather by CustomWeather, © 2016

Note: Actual official high and low records may vary slightly from our data, if they occured in-between our weather recording intervals... More about our weather records

Advertising

Mamoutzou Weather History for the Previous 24 Hours

Scroll right to see more
 ConditionsComfort  
Time TempWeatherWind HumidityBarometerVisibility
5:00 AM
Thu, May 5
81 °FPassing clouds.10 mph79%29.86 "HgN/A
4:30 AM79 °FPartly cloudy.14 mph79%29.86 "HgN/A
4:00 AM82 °FPartly cloudy.14 mph74%29.86 "HgN/A
3:30 AM82 °FPassing clouds.16 mph70%29.86 "HgN/A
3:00 AM82 °FPassing clouds.16 mph70%29.86 "HgN/A
2:30 AM82 °FPassing clouds.16 mph70%29.86 "HgN/A
2:00 AM81 °FLight rain. Mostly cloudy.7 mph79%29.86 "HgN/A
1:30 AM81 °FPartly cloudy.12 mph79%29.89 "HgN/A
1:00 AM82 °FWarm.10 mph70%29.89 "HgN/A
12:30 AM82 °FWarm.12 mph70%29.89 "HgN/A
12:00 AM82 °FWarm.13 mph70%29.89 "HgN/A
11:30 PM
Wed, May 4
82 °FPassing clouds.13 mph70%29.92 "HgN/A
11:00 PM82 °FPassing clouds.15 mph74%29.92 "HgN/A
10:30 PM82 °FPassing clouds.13 mph74%29.92 "HgN/A
10:00 PM82 °FPassing clouds.12 mph79%29.92 "HgN/A
9:30 PM82 °FPassing clouds.12 mph74%29.92 "HgN/A
9:00 PM82 °FPassing clouds.13 mph74%29.92 "HgN/A
8:30 PM82 °FPassing clouds.14 mph74%29.92 "HgN/A
8:00 PM82 °FWarm.12 mph74%29.92 "HgN/A
7:30 PM82 °FPassing clouds.12 mph74%29.92 "HgN/A
7:00 PM82 °FPassing clouds.12 mph74%29.92 "HgN/A
6:30 PM82 °FPassing clouds.10 mph74%29.92 "HgN/A
6:00 PM82 °FPassing clouds.14 mph74%29.89 "HgN/A
5:30 PM84 °FPartly sunny.12 mph66%29.89 "HgN/A
5:00 PM84 °FScattered clouds.13 mph66%29.89 "HgN/A
4:35 PM84 °FScattered clouds.12 mph66%29.89 "HgN/A
4:00 PM86 °FScattered clouds.13 mph62%29.86 "HgN/A
3:38 PM86 °FPassing clouds.14 mph62%29.86 "HgN/A
3:00 PM86 °FPassing clouds.13 mph62%29.86 "HgN/A
2:30 PM88 °FPassing clouds.13 mph59%29.86 "HgN/A
2:11 PM88 °FPassing clouds.13 mph62%29.89 "HgN/A
2:00 PM88 °FPassing clouds.14 mph62%29.89 "HgN/A
1:30 PM88 °FScattered clouds.15 mph62%29.89 "HgN/A
1:00 PM88 °FPassing clouds.14 mph59%29.89 "HgN/A
12:30 PM88 °FPassing clouds.14 mph59%29.92 "HgN/A
12:06 PM88 °FPassing clouds.15 mph62%29.92 "HgN/A
11:00 AM88 °FPassing clouds.15 mph59%29.92 "HgN/A
10:30 AM88 °FPassing clouds.14 mph59%29.95 "HgN/A
10:00 AM88 °FScattered clouds.13 mph62%29.95 "HgN/A
9:30 AM86 °FPassing clouds.13 mph66%29.95 "HgN/A
9:00 AM86 °FPassing clouds.14 mph66%29.95 "HgN/A
8:30 AM86 °FPassing clouds.13 mph66%29.95 "HgN/A
8:00 AM84 °FPassing clouds.12 mph66%29.92 "HgN/A
7:30 AM82 °FPassing clouds.10 mph74%29.92 "HgN/A
7:00 AM82 °FPassing clouds.12 mph74%29.92 "HgN/A
6:30 AM81 °FPassing clouds.10 mph79%29.89 "HgN/A
6:00 AM81 °FPassing clouds.9 mph79%29.89 "HgN/A
Weather by CustomWeather, © 2016

See weather overviewHow to use our weather pages